Volver al catálogo

ANDURIL-216

ActivoRadioaficionadoSSO
NORAD 69879·PAYLOAD·🇺🇸 United States

Lanzado Jul 7, 2026 desde Vandenberg Space Force Base

Loading…

Próximos Pases (próximas 24 horas)

TLE

ActualizadoSource: Space-Track

Época: Sep 14, 2026, 10:34 UTC

1 69879U 26156L   26257.44035138  .00000981  00000-0  10320-3 0  9996
2 69879  97.7469 156.7272 0004050 283.6921  76.3847 14.91625523 10300

Sigue ANDURIL-216 en tiempo real con AllMySat

Download on the App Store